Regional Weather Roundup
Issued by NWS Wakefield, VA

Home | Current Version | Previous Version | Text Only | Print | Product List | Glossary Off
Versions: 1 2 3 4 5 6 7 8 9 10 11 12 13 14 15 16 17 18 19 20 21 22 23 24 25 26 27 28 29 30 31 32 33 34 35 36 37 38 39 40 41 42 43 44 45 46 47 48 49 50

000
ASUS41 KAKQ 300615
RWRAKQ

REGIONAL WEATHER ROUNDUP
NATIONAL WEATHER SERVICE WAKEFIELD VA
200 AM EDT SAT MAY 30 2015

Note: "fair" indicates few or no clouds below 12,000 feet with no
significant weather and/or obstructions to visibility. * = Denotes
station may not report precipitation (e.g., rain,snow,etc.),
thunder or fog.

VAZ042-051-052>054-056-300700-
NORTHERN VIRGINIA

CITY           SKY/WX    TMP DP  RH WIND       PRES   REMARKS
WASH NATIONAL  CLOUDY    74  66  76 S9        30.19S
DULLES         MOCLDY    68  66  94 S5        30.18S
FORT BELVOIR   MOCLDY    71  66  85 SE2       30.19R
QUANTICO       CLOUDY    72  66  81 S10       30.19S
FREDERICKSBRG* MOCLDY    69  69 100 CALM      30.18S
STAFFORD*      MOCLDY    63  62  97 CALM      30.23S FOG
WARRENTON      CLOUDY    67  66  99 CALM      30.19R
CULPEPER*      CLOUDY    64  64 100 CALM      30.19S FOG
MANASSAS*      CLOUDY    70  68  94 S3        30.19R
LEESBURG*      CLEAR     70  70 100 CALM      30.20R
WINCHESTER     CLEAR     70  68  94 CALM      30.18R
FRONT ROYAL*   FAIR      64  63  94 W3        30.17R
LURAY*           N/A     66  66 100 CALM      30.18S FOG
$$

VAZ048-049-060>072-079>083-300700-
CENTRAL AND SOUTH CENTRAL VIRGINIA

CITY           SKY/WX    TMP DP  RH WIND       PRES   REMARKS
RICHMOND       MOCLDY    69  65  86 SE5       30.19S
CHESTERFIELD*  NOT AVBL
PETERSBURG*    CLEAR     68  68 100 CALM      30.20S
HANOVER        CLEAR     67  66  97 CALM      30.20F
TAPPAHANNOCK*  CLEAR     69  64  84 S3        30.20S
QUINTON*       FAIR      69  67  93 S3        30.20R
CHARLOTTSVILLE CLOUDY    68  66  93 N3        30.19S
GORDONSVILLE*  MOCLDY    66  65  98 CALM      30.18S
ORANGE*        PTCLDY    66  64  94 CALM      30.21S FOG
LOUISA*        PTCLDY    70  66  88 CALM      30.18S
BUMPASS*       FAIR      67  66  94 CALM      30.18F
FARMVILLE*     PTCLDY    68  68  99 S3        30.18R
CREWE*         FAIR      67  65  94 CALM      30.19S
FORT PICKETT*  FAIR      67  66  96 S6        30.20R
CHASE CITY*    FAIR      68  67  98 CALM      30.19S
CLARKSVILLE*   FAIR      68  63  83 S3        30.18S
SOUTH HILL*    CLEAR     69  65  89 S6        30.25S
LAWRENCEVILLE* FAIR      68  66  94 CALM      30.20S
EMPORIA*       CLEAR     64  64 100 CALM      30.21S
$$

VAZ088>098-300700-
SOUTHEAST VIRGINIA

CITY           SKY/WX    TMP DP  RH WIND       PRES   REMARKS
NORFOLK        PTCLDY    71  67  87 S6        30.20S
VIRGINIA BEACH MOCLDY    71  67  87 SE5       30.20S
NORFOLK NAVAL  PTCLDY    75  68  78 SE6       30.21F
WEST POINT*    CLEAR     70  66  87 CALM      30.21S
SALUDA*        FAIR      68  66  94 CALM      30.20R
NEWPORT NEWS   PTCLDY    76  68  76 S3        30.20F
LANGLEY AFB    PTCLDY    71  68  92 S6        30.19F
FORT EUSTIS    PTCLDY    72  72 100 S6        30.18S
WILLIAMSBURG*  PTCLDY    75  72  88 S6        30.21R
HR EXEC AP*    FAIR      64  61  88 CALM      30.22S
FRANKLIN*      PTCLDY    68  67  96 CALM      30.20S
WAKEFIELD      PTCLDY    70  67  90 CALM      30.20S
$$

VAZ020-022-025-037-045-300700-
WEST CENTRAL AND SOUTHWEST VIRGINIA

CITY           SKY/WX    TMP DP  RH WIND       PRES   REMARKS
STAUNTON*      MOCLDY    68  66  92 CALM      30.22S
WAYNESBORO*    FAIR      66  65  98 CALM      30.21F
HOT SPRINGS VA CLOUDY    63  63 100 S7        30.29S FOG
LYNCHBURG      CLEAR     66  64  93 CALM      30.20F
DANVILLE       CLEAR     66  61  84 CALM      30.19R
SOUTH BOSTON*  FAIR      64  62  93 MISG      30.19R
MARTINSVILLE   MOCLDY    63  63 100 CALM      30.21F FOG
ROANOKE        PTCLDY    67  66  97 CALM      30.21F
BLACKSBURG     PTCLDY    62  62  98 CALM      30.26S FOG
DUBLIN*        CLOUDY    63  63 100 CALM      30.25S FOG
MARION*        PTCLDY    62  60  95 CALM      30.28S
HILLSVILLE*    PTCLDY    64  62  94 SW3       30.27S
RICHLANDS*     FAIR      67  60  79 CALM      30.24S
WISE*          PTCLDY    64  61  88 S5        30.24S
ABINGDON*      CLEAR     64  64  98 CALM      30.22S
$$

MDZ021>025-VAZ099-100-300700-
SOUTHERN MARYLAND AND THE DELMARVA PENINSULA

CITY           SKY/WX    TMP DP  RH WIND       PRES   REMARKS
PATUXENT RIVER PTCLDY    70  66  87 S5        30.19F
BAY BRIDGE APT   N/A    N/A N/A N/A S10       30.19F
LEONARDTOWN    CLEAR     68  64  88 CALM      30.21S
DOVER          CLEAR     67  67 100 S6        30.17F
GEORGETOWN     PTCLDY    67  65  93 S7        30.21F
EASTON         CLEAR     69  69 100 S3        30.24S
CAMBRIDGE      PTCLDY    66  63  88 CALM      30.20S
SALISBURY      CLOUDY    64  63  96 CALM      30.21F FOG
OCEAN CITY     FOG       66  65  96 S3        30.21F VSB 3/4
WALLOPS ISLAND PTCLDY    67  67 100 S5        30.22F
ACCOMACK*      PTCLDY    68  68 100 SE6       30.21S
$$

NCZ012>017-030>032-300700-
NORTH CENTRAL AND EASTERN NORTH CAROLINA

CITY           SKY/WX    TMP DP  RH WIND       PRES   REMARKS
ROANOKE RAPIDS FAIR      68  66  94 CALM      30.20S
RALEIGH        PTCLDY    71  65  81 S3        30.20S
ELIZABETH CITY PTCLDY    70  68  93 S3        30.20F
AHOSKIE*       CLEAR     67  66  95 CALM      30.20S
EDENTON*       PTCLDY    70  67  89 SE5       30.20F
CURRITUCK*     PTCLDY    70  68  92 CALM      30.21F
KILL DEVIL HLS   N/A     71  69  93 CALM      30.20S
MANTEO         PTCLDY    71  69  93 SE3       30.21S
CAPE HATTERAS  CLEAR     74  64  71 SE7       30.20F
TARBORO*       FAIR      68  66  93 CALM      30.21S
GOLDSBORO      CLEAR     69  67  91 CALM      30.17F
WASHINGTON     CLEAR     70  66  87 CALM      30.20F
GREENVILLE     CLEAR     70  68  94 S3        30.21S
NEW BERN       CLEAR     67  63  87 CALM      30.21S
WILMINGTON     CLEAR     72  67  84 CALM      30.18F
$$

VAZ048-300700-
ELSEWHERE

CITY           SKY/WX    TMP DP  RH WIND       PRES   REMARKS
HARRISBURG PA  PTCLDY    73  66  78 S3        30.17S
BALTIMORE      MOCLDY    71  66  84 VRB3      30.18F
ANNAPOLIS      PTCLDY    71  66  84 S12       30.18S
ANDREWS AFB    MOCLDY    70  67  91 S8        30.18F
PHILADELPHIA   MOCLDY    71  64  78 SW3       30.20F
HENDERSON NC   CLEAR     69  62  79 S5        30.20S
GREENSBORO     CLEAR     69  59  70 S10       30.18S
ROCKY MOUNT    MOCLDY    71  67  87 S3        30.20F
$$

VAZ100-300700-
MARINE

STATION/POSITION TIME  TEMP    WIND        PRES    WAVE   SWELL
                       AIR SEA DIR/SP/G            HT/PER HT/PER
                 (UTC) (F)     (DEG/KT/KT) (MB)    (FT/S) (FT/S)
BRANDYWINE LGT   0500   67 67  180/ 12/ 13 1023.2F
CAPE MAY NJ      0500   66 69  160/  7/  9 1022.8F
LEWES DE         0500   69 62  170/  5/  6 1022.9F
15NM E FENWICK I 0550   66 65              1023.0F   3/ 9
OCEAN-CITY-INLET 0500   65 61  180/  3/  4 1023.1F
WACHAPREAGUE VA  0500   70 78  190/ 10/ 12 1023.1F
THOMAS POINT MD  0600   72 72  170/ 16/ 18 1022.5F
GOOSES REEF MD   0600   72 72  190/ 16/ 17 1023.2F   1/ 3
COVE POINT MD    0500   71     180/ 14/ 16 1023.2F
SOLOMONS ISLAND  0500      74                N/A
BISHOPS HEAD MD  0500   73 77  160/ 13/ 16 1022.6F
PINEY POINT MD   0500          170/ 10/ 12   N/A
CAMBRIDGE MD     0500   69 76  150/  2/  4 1022.6F
LEWISETTA VA     0500   71 77              1022.2F
RAPPAHANNOCK LGT 0500          150/  9/ 10 1023.4F
STINGRAY PT      0600   71 71  170/ 12/ 12 1022.2F   2/ 3
YORK RVR RNG VA  0500   72     160/ 11/ 11 1022.1F
YORKTOWN VA      0500   71 73  150/  4/  5 1022.4F
JAMESTOWN VA     0600   72 78  150/  6/  8   N/A
DOMINION TERM VA 0500   73     170/  6/  8 1022.8F
KIPTOPEKE VA     0500      77  160/  9/ 12   N/A
CHES BAY BRIDGE  0500   71 71  130/  5/  7 1022.5F
CAPE HENRY VA    0500   69     150/  6/  8 1021.6F
CHESAPEAKE LGHT  0500   69     150/ 15/ 15 1023.6F
WILLOUBY STN VA  0500   72     160/  8/  9 1023.5F
CAPE HENRY BUOY  0528      64                N/A     2/ 8
1ST LANDING BUOY 0600      68              1022.3F
CAPE CHARLES BUO 0526      67                N/A     2/ 8   2/ 8
OFFSHORE WE BUOY 0511      68                N/A     3/ 8   3/ 8
64NM E OF VA BCH 0550   68 66  120/  6/  6 1022.7F   3/ 8   3/ 8
DUCK PIER NC     0500   68 59  140/  7/  7 1022.1F
44100 DUCK FRF   0524      73                N/A     3/ 8
44056 DUCK FRF   0511      65                N/A     3/ 9
OREGON INLET NC  0500   72 76  140/  3/  5 1023.0F
HATTERAS NC      0500   75 78  140/  7/ 10 1022.4F
DIAMOND SHLS NC  0550   76 80  140/ 10/ 12 1022.7F   4/ 8   3/ 8
CAPE LOOKOUT NC  0600   75     130/  8/  9 1021.9F
$$



USA.gov is the U.S. government's official web portal to all federal, state and local government web resources and services.